Temperature
23 22 21 21 20 20 19 19 19 19 19 18 18 18 18 18 18 18 18 18 18 18 18 18 18 18 18 18 18 18 18 18 18 18 18 19 18 18 18 18 18 18 18
23 22 21 21 20 20 20 19 19 19 19 19 19 18 18 18 18 18 18 18 18 18 18 18 18 18 18 18 18 18 18 18 18 18 19 19 19 18 19 18 18 18 18
24 23 22 21 21 20 20 20 20 19 19 19 19 18 18 18 18 18 18 18 18 18 18 18 18 18 18 18 18 18 18 18 18 18 18 19 20 19 19 18 18 18 18
24 23 22 22 21 21 20 20 20 20 20 19 19 19 19 19 19 19 19 19 19 18 18 18 18 18 18 18 18 18 18 18 18 18 18 18 18 18 19 18 18 18 18
25 24 23 22 22 21 21 20 20 20 20 20 19 19 19 19 19 19 19 19 19 18 18 18 18 18 18 18 18 18 18 18 18 18 18 18 17 18 18 18 18 18 18
25 24 23 23 22 21 21 20 20 20 20 20 20 20 19 19 19 19 19 19 19 18 18 18 18 18 18 18 18 18 18 18 18 17 17 18 18 18 18 18 18 18 18
25 24 23 23 22 22 21 21 20 20 20 20 20 20 20 19 19 19 19 19 19 19 19 18 18 18 18 18 18 18 18 17 17 17 17 17 18 18 18 18 18 18 18
26 25 24 23 22 22 21 21 21 20 20 20 20 20 20 19 19 19 19 19 19 19 19 19 19 18 18 18 18 18 18 18 17 17 17 17 17 17 17 17 17 18 18
25 25 24 23 22 22 21 21 21 20 20 20 20 20 20 19 19 19 19 19 19 19 18 19 19 18 18 18 18 18 18 17 17 17 17 17 17 17 17 17 17 17 18
25 25 24 23 23 22 21 21 21 20 20 20 20 20 20 20 19 19 19 19 19 19 18 18 18 18 18 18 18 18 18 18 17 17 17 17 17 17 17 17 17 17 17
25 24 24 23 23 22 22 21 21 20 20 20 20 20 20 20 19 19 19 19 19 18 18 18 18 18 18 18 18 18 17 17 17 17 17 17 17 17 17 17 17 17 17
24 24 24 23 23 22 22 21 20 20 20 20 19 19 19 19 19 19 19 19 19 18 18 18 18 18 17 17 17 17 17 17 17 17 17 17 17 16 17 17 17 16 16
24 23 23 22 22 22 21 21 20 20 20 19 19 19 19 19 19 19 19 19 18 18 18 18 18 18 17 17 17 17 17 17 17 17 16 16 16 16 16 16 16 16 16
23 23 22 22 21 21 20 20 20 20 19 19 19 19 19 19 19 19 18 18 18 18 18 18 18 18 17 17 17 17 17 17 17 17 16 16 16 16 16 16 16 16 16
22 21 21 21 20 20 20 20 20 19 19 19 19 19 19 19 18 18 18 18 18 18 18 18 17 17 17 17 17 17 17 16 16 16 16 16 16 16 16 16 16 16 16
22 21 20 20 20 19 19 19 19 19 19 19 18 19 18 18 18 18 18 18 18 18 17 17 17 17 17 17 17 17 16 16 16 16 16 16 16 16 16 16 16 16 16
21 20 20 19 19 19 19 19 19 19 18 18 18 18 18 18 18 18 17 17 17 17 17 17 17 17 17 17 17 17 16 16 16 16 16 16 16 16 16 16 16 16 16
20 20 20 19 19 19 19 19 18 18 18 18 18 18 17 17 17 17 17 17 17 17 17 17 17 17 17 17 17 16 16 16 16 16 15 15 15 15 15 15 15 15 15
19 19 19 19 18 18 18 18 18 18 18 18 17 17 17 17 17 17 17 17 17 17 17 17 16 16 16 16 16 16 15 15 15 15 15 15 15 15 15 15 15 15 15
18 18 18 18 18 17 18 18 18 18 17 17 17 17 17 17 17 16 16 16 16 16 16 16 16 16 16 16 16 16 15 15 15 15 15 15 15 15 15 15 14 14 14
17 17 17 17 17 17 17 17 17 17 17 17 17 17 17 17 16 16 16 16 16 15 16 15 15 15 15 15 15 15 15 15 15 15 15 15 15 15 14 14 14 14 14
17 17 17 17 16 16 16 16 16 16 16 16 16 16 16 16 16 16 16 15 15 15 15 15 15 15 15 15 15 15 15 15 14 14 14 14 14 14 14 14 14 14 14
16 16 16 16 16 16 16 16 16 16 16 16 16 15 15 15 15 15 15 15 15 15 15 15 15 15 15 15 14 14 14 14 14 14 14 14 14 14 13 13 13 13 13
16 16 16 16 16 16 15 15 15 15 15 15 15 15 15 15 15 15 15 15 15 15 15 15 15 15 15 14 14 14 14 14 13 13 13 13 13 13 13 13 13 13 13
15 15 15 15 15 15 15 15 15 15 15 15 15 14 15 15 14 14 14 14 14 14 14 14 14 14 14 14 14 14 13 13 13 13 13 12 12 12 12 12 12 12 12
15 15 15 15 15 15 15 15 14 14 14 14 14 14 14 14 14 14 14 14 14 14 14 14 13 13 13 13 14 13 13 13 13 12 12 12 12 12 12 12 12 12 12
Wind_Speed
13 13 14 14 13 13 12 12 12 11 9 8 8 7 7 6 6 6 6 7 7 6 5 4 3 3 3 2 3 3 4 4 2 2 2 3 3 3 3 3 3 2 3
13 13 14 14 14 14 14 13 13 12 12 9 8 6 6 6 6 5 6 7 7 7 7 6 4 4 3 3 4 4 3 3 3 3 3 3 3 3 3 3 3 2 2
14 15 15 15 14 14 15 14 14 13 13 11 9 7 6 6 6 6 6 7 8 8 7 6 5 4 5 4 4 4 5 3 3 3 2 2 1 1 2 3 3 2 2
14 14 15 15 15 15 14 14 14 14 13 12 11 11 8 8 7 6 6 7 8 8 8 7 6 6 5 4 5 5 4 5 4 3 3 3 2 2 1 3 3 3 3
14 15 15 15 14 14 14 13 14 14 13 13 12 11 10 8 7 6 6 7 7 8 8 8 7 6 6 6 5 4 5 5 5 4 3 4 4 5 4 3 3 3 3
13 14 14 14 14 13 13 13 13 14 14 14 13 13 12 10 8 8 7 7 7 7 9 8 7 7 6 6 6 6 7 6 5 5 4 4 4 4 4 4 5 4 3
12 13 14 14 14 14 14 14 14 14 14 14 14 13 13 11 11 10 9 8 7 7 7 8 7 7 7 7 6 6 6 6 6 6 5 5 5 4 4 5 5 5 4
10 12 13 14 14 14 15 14 14 14 14 14 13 12 12 11 10 10 9 8 7 7 6 7 7 8 8 7 7 6 7 6 7 7 6 5 6 5 5 5 5 5 4
8 10 11 13 13 14 14 14 14 14 13 14 13 12 12 12 10 9 9 8 7 7 7 7 7 7 8 8 7 6 7 6 7 7 7 7 6 5 5 5 5 6 6
6 8 9 11 12 13 13 13 13 13 13 13 12 11 11 11 10 9 9 8 8 7 7 8 8 8 8 8 8 7 7 7 7 6 6 7 7 5 6 5 5 6 6
5 6 7 8 10 11 11 12 12 12 12 12 11 11 10 10 10 9 9 9 8 8 8 8 8 8 8 8 8 8 8 8 8 8 8 8 7 6 6 5 6 6 6
3 5 5 6 8 10 10 11 11 12 11 11 10 10 9 9 9 10 9 9 9 9 8 8 9 9 9 8 9 9 9 8 8 8 8 8 7 7 7 6 6 6 6
3 4 4 5 7 7 8 10 11 11 11 10 10 9 9 9 9 9 9 9 9 9 9 9 9 8 8 9 9 9 9 9 9 8 9 9 8 8 6 7 7 6 6
3 3 4 4 5 6 7 8 9 9 9 9 9 9 9 9 8 8 8 8 8 8 9 9 9 8 8 8 8 8 8 8 8 8 9 9 9 8 8 8 8 7 7
2 2 2 3 4 5 5 6 7 8 8 8 8 8 7 7 7 7 8 8 8 8 8 8 8 8 8 7 8 8 9 8 8 8 8 8 7 7 7 7 7 7 7
2 2 2 2 2 3 4 5 7 7 7 7 7 6 6 6 7 8 8 8 9 8 8 8 8 8 7 4 5 8 8 8 8 8 8 8 8 8 8 8 8 7 8
2 2 1 2 2 2 2 3 5 6 6 7 6 6 7 7 7 8 8 9 9 8 8 9 8 8 7 6 6 7 8 8 8 8 7 8 7 8 8 8 9 8 8
2 2 1 1 1 1 1 2 3 4 5 6 6 7 7 7 7 8 9 9 8 8 8 8 8 8 7 7 7 7 9 8 8 8 8 8 7 6 6 7 8 9 9
1 1 1 1 1 0 1 1 1 2 3 5 6 7 7 7 7 8 8 8 8 8 8 8 8 9 7 8 8 8 7 7 8 8 8 7 7 5 5 8 8 9 8
1 1 1 1 1 0 0 0 1 2 3 4 5 5 6 7 7 7 7 7 7 8 8 8 8 9 8 7 8 8 6 6 6 7 7 8 7 6 6 8 8 9 8
1 1 1 0 0 0 0 1 1 2 3 4 4 4 5 6 7 6 6 6 7 7 7 7 8 8 8 8 9 9 6 6 6 7 7 6 7 6 7 9 8 7 7
2 1 1 1 0 1 1 1 2 3 4 4 4 4 5 5 5 5 5 6 6 6 7 6 7 6 6 7 8 9 8 7 7 7 6 4 6 6 7 7 6 7 8
2 2 2 2 1 1 2 2 3 3 4 4 4 4 4 4 5 5 6 6 6 6 6 5 6 6 5 6 9 10 10 9 7 6 3 3 5 7 8 9 10 9 8
3 3 3 3 3 3 3 3 3 4 4 4 4 4 4 5 4 5 6 6 6 6 5 6 6 6 5 5 5 5 6 7 7 6 5 6 8 8 7 7 8 7 7
4 4 4 4 4 3 3 3 3 3 3 4 4 4 4 3 3 3 4 5 4 4 5 5 6 6 5 3 1 4 5 5 5 5 6 6 5 5 5 5 5 5 5
4 4 5 5 4 4 3 3 2 2 3 3 4 3 3 3 4 3 2 1 3 1 3 5 5 4 3 3 3 3 3 4 5 6 7 6 5 5 5 5 5 5 5
Wind_Direction
189 187 190 192 191 191 192 193 195 190 193 195 198 200 204 208 208 211 207 209 214 210 220 231 201 224 225 233 225 227 220 232 230 250 241 219 213 215 217 228 243 227 232
188 187 190 192 193 193 195 196 198 196 198 200 204 207 211 213 210 214 202 210 212 213 211 220 225 216 222 227 226 230 243 236 216 249 261 236 195 203 216 214 218 235 226
194 189 192 194 195 195 197 199 199 199 202 201 203 202 202 215 209 207 206 210 212 215 223 218 228 229 232 226 227 228 233 238 227 233 260 273 266 259 191 217 222 231 253
200 195 194 196 198 197 196 198 197 200 201 202 208 208 210 215 215 212 206 206 211 217 219 222 222 226 232 226 230 222 231 238 241 224 233 260 291 275 252 232 221 230 249
201 199 198 197 198 197 195 196 196 200 201 205 207 211 218 220 218 214 211 219 213 217 221 220 221 221 228 227 234 231 236 233 241 245 238 239 239 248 261 269 273 256 253
202 201 200 194 196 195 195 195 195 200 201 205 208 212 219 220 222 218 217 217 217 216 217 220 221 223 226 223 226 231 230 236 241 250 249 245 249 247 253 263 265 266 259
202 199 197 194 195 195 196 196 195 199 202 204 208 210 216 216 220 223 221 226 226 219 214 220 219 222 223 225 225 225 236 231 233 240 245 251 257 260 260 264 272 278 271
201 199 197 197 197 197 197 197 196 200 201 203 207 210 212 216 219 218 228 225 231 230 215 216 220 223 223 224 222 229 230 231 233 240 243 249 250 252 251 253 263 273 268
203 202 199 200 199 200 199 199 197 200 202 202 202 206 208 215 218 214 219 227 226 225 215 216 220 221 222 225 225 230 233 230 234 238 236 243 248 243 246 245 248 260 272
202 202 201 200 200 199 200 202 199 200 203 202 202 202 204 209 213 215 215 220 219 218 216 216 220 222 222 225 229 232 231 233 235 240 245 243 247 239 237 238 241 247 261
200 194 196 197 197 197 196 199 198 198 200 203 203 204 202 205 208 212 215 214 215 214 217 220 222 224 225 226 227 235 236 234 236 237 236 238 248 249 244 239 240 244 247
195 189 185 189 195 197 196 196 197 199 200 199 199 201 202 203 207 209 212 213 213 216 218 220 223 227 228 227 229 233 235 233 234 237 240 242 238 238 244 244 241 242 243
188 185 183 188 192 195 199 197 198 199 196 192 195 199 202 204 208 210 211 212 215 219 220 221 223 227 230 231 232 234 237 236 236 238 240 239 239 239 238 240 243 242 240
195 198 192 193 196 198 199 202 202 199 196 193 194 199 205 206 207 206 208 210 212 217 221 223 224 225 227 229 233 234 236 238 239 239 240 240 239 240 240 237 239 244 246
193 197 202 198 198 199 199 202 202 196 196 196 199 202 203 201 202 203 206 211 212 215 220 225 227 228 227 227 229 235 234 234 238 240 241 240 238 245 246 250 245 243 246
218 206 192 182 181 195 200 201 201 195 193 200 203 197 196 199 202 203 205 211 215 216 216 221 225 228 231 205 220 240 241 238 237 238 239 238 231 229 229 245 254 253 245
249 232 211 188 182 188 189 195 199 196 197 201 202 199 201 203 206 206 208 214 216 215 217 221 224 229 225 204 213 233 243 243 242 240 241 247 241 234 239 228 228 237 241
266 248 231 190 177 171 170 184 186 191 199 206 210 209 209 208 205 208 211 214 218 218 220 224 228 231 222 195 210 226 238 244 242 241 241 243 249 244 245 242 241 242 241
294 273 223 140 92 65 100 137 187 199 213 215 219 219 217 217 213 214 215 213 214 220 222 223 227 229 221 196 202 223 238 239 244 243 240 240 241 228 232 243 246 248 247
25 35 65 98 99 38 50 184 207 208 231 239 233 230 226 224 223 221 217 218 218 223 228 227 229 229 227 198 200 220 238 238 243 239 234 227 227 218 222 239 245 250 253
38 29 14 349 16 349 12 257 283 269 261 257 246 237 231 226 223 224 221 221 224 226 234 234 233 230 224 200 197 213 235 243 250 250 241 229 188 206 222 242 246 248 257
8 353 328 320 305 211 219 236 259 271 269 258 247 244 239 237 226 217 220 223 227 227 228 234 239 229 216 209 200 206 224 247 247 254 249 224 178 212 231 239 243 247 251
325 312 296 286 274 251 240 249 267 266 257 254 246 241 239 236 229 224 220 222 224 233 234 232 243 241 227 206 192 200 212 226 241 254 267 252 215 223 234 227 230 237 246
297 289 282 284 287 282 278 273 275 268 248 246 246 240 230 229 229 236 233 233 233 234 236 237 241 241 234 233 222 225 223 220 233 246 240 223 224 229 239 238 232 239 248
296 291 289 288 288 287 289 293 295 282 256 252 253 254 247 238 245 251 262 254 255 251 243 248 249 249 244 237 262 237 239 244 245 246 245 245 243 244 246 248 250 251 248
286 282 284 287 289 284 283 293 300 292 274 263 257 261 259 244 241 241 256 266 251 203 225 250 257 254 227 205 220 234 239 242 230 234 243 245 244 244 248 249 251 253 255
Height
1521 1523 1526 1529 1531 1533 1536 1538 1540 1542 1545 1547 1549 1551 1553 1554 1555 1556 1557 1558 1559 1560 1560 1562 1561 1561 1562 1562 1563 1563 1563 1564 1564 1565 1565 1565 1565 1565 1564 1564 1565 1564 1564
1518 1520 1523 1526 1528 1530 1533 1535 1538 1540 1543 1545 1547 1549 1551 1552 1553 1555 1555 1556 1557 1558 1559 1559 1560 1560 1560 1560 1561 1561 1562 1562 1563 1563 1564 1563 1564 1563 1563 1563 1562 1562 1562
1513 1516 1519 1522 1525 1527 1529 1532 1535 1537 1540 1543 1545 1547 1548 1550 1551 1552 1553 1554 1555 1556 1557 1558 1558 1558 1559 1559 1559 1559 1560 1561 1561 1561 1562 1562 1561 1562 1562 1561 1561 1561 1560
1510 1513 1516 1518 1521 1524 1526 1529 1531 1534 1537 1539 1542 1544 1546 1548 1549 1550 1552 1552 1553 1554 1555 1555 1556 1556 1557 1557 1557 1558 1558 1558 1559 1560 1559 1560 1560 1560 1560 1560 1560 1559 1558
1505 1508 1511 1514 1518 1521 1523 1526 1528 1531 1533 1536 1538 1540 1543 1545 1547 1548 1549 1550 1551 1551 1552 1552 1553 1553 1554 1554 1554 1555 1555 1556 1556 1557 1557 1557 1558 1558 1558 1558 1558 1557 1556
1501 1505 1508 1511 1514 1517 1520 1522 1524 1526 1529 1532 1534 1536 1539 1541 1543 1544 1546 1547 1548 1548 1548 1549 1550 1550 1551 1551 1552 1552 1552 1553 1553 1554 1555 1555 1555 1556 1555 1555 1555 1554 1554
1497 1500 1504 1506 1509 1512 1515 1518 1520 1522 1525 1528 1530 1532 1535 1537 1538 1540 1542 1543 1545 1545 1545 1546 1546 1547 1548 1549 1549 1549 1550 1550 1550 1551 1551 1552 1552 1553 1552 1553 1552 1552 1551
1493 1496 1499 1502 1505 1508 1511 1514 1516 1518 1521 1523 1526 1528 1530 1533 1535 1536 1538 1540 1541 1542 1542 1542 1543 1544 1545 1546 1546 1547 1547 1547 1547 1548 1548 1549 1549 1550 1549 1550 1550 1549 1549
1490 1492 1495 1498 1501 1504 1506 1509 1511 1514 1516 1519 1521 1523 1526 1528 1530 1532 1533 1536 1536 1538 1538 1539 1540 1540 1541 1542 1543 1544 1544 1544 1544 1545 1545 1545 1546 1546 1546 1546 1546 1547 1546
1487 1490 1492 1494 1497 1500 1503 1506 1508 1509 1512 1514 1517 1519 1521 1523 1525 1527 1529 1531 1532 1533 1534 1535 1536 1537 1538 1538 1539 1540 1540 1540 1541 1541 1542 1542 1543 1543 1543 1543 1543 1543 1543
1485 1487 1489 1491 1494 1497 1499 1501 1504 1506 1508 1510 1512 1515 1517 1519 1521 1523 1525 1526 1528 1529 1530 1531 1532 1533 1534 1535 1535 1536 1537 1537 1537 1537 1538 1538 1538 1539 1539 1539 1539 1539 1540
1484 1485 1487 1489 1491 1493 1495 1497 1499 1502 1504 1506 1508 1510 1512 1514 1516 1518 1520 1522 1523 1524 1526 1527 1528 1529 1530 1530 1531 1532 1532 1533 1533 1534 1534 1534 1535 1535 1535 1535 1536 1536 1536
1483 1485 1486 1487 1488 1490 1492 1494 1496 1498 1500 1502 1504 1506 1508 1510 1512 1514 1516 1517 1519 1520 1522 1523 1524 1524 1525 1526 1527 1528 1528 1529 1529 1529 1530 1530 1531 1531 1531 1531 1532 1532 1532
1482 1483 1484 1485 1486 1487 1489 1490 1492 1495 1497 1498 1500 1501 1503 1506 1507 1509 1511 1513 1514 1516 1517 1519 1519 1520 1521 1521 1522 1523 1524 1524 1525 1525 1525 1526 1526 1527 1527 1528 1527 1528 1528
1481 1482 1482 1483 1484 1485 1485 1487 1489 1491 1493 1494 1496 1497 1499 1501 1503 1505 1507 1509 1510 1511 1513 1514 1515 1516 1516 1517 1518 1518 1519 1519 1520 1520 1520 1521 1521 1522 1523 1524 1523 1523 1523
1479 1480 1480 1481 1481 1482 1483 1485 1486 1488 1489 1491 1493 1494 1495 1497 1499 1501 1503 1505 1506 1507 1508 1509 1510 1511 1512 1512 1513 1514 1515 1515 1515 1515 1515 1516 1516 1517 1517 1518 1518 1519 1519
1478 1478 1479 1479 1480 1481 1481 1482 1483 1485 1486 1488 1489 1490 1491 1493 1494 1496 1498 1500 1501 1502 1503 1504 1505 1506 1507 1508 1508 1509 1509 1510 1510 1510 1510 1511 1512 1512 1512 1513 1513 1513 1513
1476 1477 1477 1478 1479 1479 1480 1480 1481 1482 1484 1485 1487 1487 1488 1489 1490 1492 1493 1495 1497 1497 1499 1499 1501 1502 1502 1503 1504 1504 1504 1505 1504 1505 1505 1506 1506 1507 1507 1508 1508 1508 1508
1474 1474 1475 1476 1476 1477 1477 1478 1479 1480 1481 1482 1484 1484 1485 1486 1487 1488 1489 1490 1491 1493 1494 1495 1496 1497 1497 1498 1499 1499 1499 1499 1499 1500 1500 1500 1501 1501 1501 1502 1502 1503 1503
1472 1473 1474 1475 1475 1475 1475 1476 1477 1478 1479 1480 1481 1481 1482 1483 1483 1484 1485 1487 1488 1489 1490 1491 1491 1492 1493 1493 1493 1494 1495 1494 1495 1494 1494 1494 1495 1495 1496 1496 1497 1496 1497
1471 1472 1472 1473 1473 1474 1474 1474 1475 1475 1476 1477 1478 1478 1479 1479 1480 1480 1481 1483 1484 1485 1485 1486 1487 1487 1488 1488 1489 1489 1490 1489 1489 1489 1489 1489 1489 1490 1490 1491 1491 1490 1491
1470 1470 1471 1471 1472 1472 1472 1472 1472 1473 1473 1474 1474 1475 1475 1476 1477 1476 1476 1478 1479 1480 1480 1481 1482 1483 1483 1483 1484 1485 1485 1485 1484 1484 1484 1484 1483 1484 1485 1485 1485 1485 1485
1469 1469 1469 1469 1469 1470 1470 1469 1469 1470 1470 1470 1471 1471 1471 1472 1472 1472 1472 1473 1475 1475 1476 1476 1477 1478 1478 1479 1479 1479 1479 1479 1479 1480 1479 1479 1478 1478 1479 1479 1480 1479 1479
1468 1467 1467 1467 1467 1467 1467 1466 1466 1466 1466 1466 1467 1467 1467 1467 1468 1468 1469 1469 1470 1470 1471 1471 1472 1473 1473 1474 1474 1474 1474 1474 1475 1475 1474 1474 1473 1474 1474 1474 1474 1474 1474
1465 1465 1465 1464 1464 1464 1464 1463 1463 1462 1463 1463 1463 1463 1463 1463 1463 1464 1464 1464 1464 1465 1465 1466 1468 1468 1468 1468 1469 1469 1469 1470 1470 1470 1470 1470 1470 1470 1470 1470 1469 1469 1469
1463 1463 1463 1462 1462 1462 1461 1461 1460 1460 1460 1459 1460 1460 1460 1460 1460 1459 1459 1459 1460 1460 1460 1461 1461 1462 1462 1463 1463 1464 1464 1465 1465 1465 1465 1465 1465 1465 1465 1464 1464 1464 1464